Regional Weather Roundup
Issued by NWS Austin/San Antonio, TX

Home | Current Version | Previous Version | Text Only | Print | Product List | Glossary On
Versions: 1 2 3 4 5 6 7 8 9 10 11 12 13 14 15 16 17 18 19 20 21 22 23 24 25 26 27 28 29 30 31 32 33 34 35 36 37 38 39 40 41 42 43 44 45 46 47 48 49 50
000
ASUS44 KEWX 280702
RWREWX
SOUTH TEXAS REGIONAL WEATHER ROUNDUP
NATIONAL WEATHER SERVICE AUSTIN/SAN ANTONIO TX
200 AM CDT WED JUN 28 2017

NOTE: "FAIR" INDICATED FEW OR NO CLOUDS BELOW 12,000 FEET WITH NO
SIGNIFICANT WEATHER AND/OR OBSTRUCTIONS TO VISIBILITY.

* - THESE STATIONS ARE NOT NWS OR FAA STATIONS...AND ARE NOT SUBJECT
    TO NWS AND FAA QUALITY CONTROL.

TXZ171-172-183>190-280800-
TEXAS HILL COUNTRY AND EDWARDS PLATEAU

CITY           SKY/WX    TMP DP  RH WIND       PRES   REMARKS
JUNCTION       CLEAR     72  67  84 S3        30.00S
*LLANO         CLEAR     70  68  94 CALM      30.02F
BURNET         MOCLDY    71  67  87 VRB3      30.01F
*HORSESHOE BAY MOCLDY    69  67  95 MISG      29.99F
*KERRVILLE     CLEAR     69  68  96 CALM      30.00F
*FREDERICKSBRG PTCLDY    68  66  93 CALM      30.00F
*ROCKSPRINGS   PTCLDY    70  70 100 S7        30.05S
*BOERNE STAGE  CLOUDY    68  66  94 CALM      30.01F
*CASTROVILLE   CLEAR     69  68  97 CALM      29.99S
HONDO          CLEAR     70  68  93 CALM      29.98S
*UVALDE        CLEAR     69  68  98 CALM      29.98F
DEL RIO        CLOUDY    75  69  81 E10       29.96S
LAUGHLIN AFB   NOT AVBL
CARRIZO SPRGS  CLEAR     72  70  94 E3        29.95S
*EAGLE PASS      N/A    N/A N/A N/A MISG        N/A
$$

TXZ173-191>194-202-209-217>225-228-280800-
CENTRAL AND SOUTH CENTRAL TEXAS

CITY           SKY/WX    TMP DP  RH WIND       PRES   REMARKS
GEORGETOWN     CLEAR     72  66  83 CALM      29.97F
AUSTIN/BERGSTM CLEAR     72  71  97 W5        29.96F
AUSTIN/MABRY   CLEAR     73  70  90 W3        29.98F
*AUSTIN/EXEC     N/A     72  72 100 CALM      29.98S
*LAGO VISTA    CLOUDY    71  70  95 CALM      30.00F
SAN MARCOS     CLEAR     70  70 100 N5        29.98F
NEW BRAUNFELS  PTCLDY    71  69  93 N5        29.96S FOG
RANDOLPH AFB   CLEAR     70  70 100 N5        29.97S
PT SAN ANTONIO CLEAR     72  69  89 CALM      29.94F
SAN ANTONIO    PTCLDY    72  68  87 CALM      29.97F
STINSON FIELD  CLEAR     74  69  85 CALM      29.94F
*LA GRANGE     CLEAR     74  73  97 CALM      29.93F
*GIDDINGS      CLEAR     71  69  95 CALM      29.97F
*GONZALES      CLEAR     73  73 100 CALM      29.94F
$$

TXZ163>164-176>182-195>201-210>213-226-227-235-280800-
SOUTHEAST TEXAS

CITY           SKY/WX    TMP DP  RH WIND       PRES   REMARKS
COLLEGE STN    CLEAR     71  71 100 CALM      29.96F
*BRYAN         CLEAR     70  70 100 CALM      29.98S
*CALDWELL      NOT AVBL
*CROCKETT      CLEAR     72  68  88 CALM      30.01S
*BRENHAM       CLEAR     74  73  96 CALM      29.97S
HUNTSVILLE     CLEAR     72  69  90 E3        29.98S
CONROE         CLEAR     72  71  97 E3        29.96F
HOUSTON BUSH   MOCLDY    75  73  93 NE7       29.96S
HOUSTON HOBBY  MOCLDY    79  72  79 E6        29.94S
*HOUSTON SW AP PTCLDY    74  72  91 CALM      29.95S
PEARLAND       NOT AVBL
HOUSTON HOOKS  CLOUDY    76  73  91 E8        29.96S
ELLINGTON FLD  RAIN      79  75  89 NE5       29.97R
SUGAR LAND     CLOUDY    78  73  84 CALM      29.94S
*HOUSTON EXEC  PTCLDY    72  72 100 NE5       29.96F
*CLEVELAND MUN CLEAR     72  71  96 CALM      29.98F FOG
*WHARTON       CLEAR     72  70  93 CALM      29.94S
*COLUMBUS      FAIR      72  70  95 CALM      29.95S
*EAGLE LAKE    CLOUDY    74  74  98 NE5       29.94S
$$

TXZ214>216-236>238-280800-
THE UPPER TEXAS COAST

CITY           SKY/WX    TMP DP  RH WIND       PRES   REMARKS
*ORANGE        CLEAR     73  73  98 NE5       29.99R
PORT ARTHUR    CLEAR    N/A N/A N/A MISG        N/A
GALVESTON      LGT RAIN  78  76  93 SE12      29.94S
ANGLETON       PTCLDY    75  74  96 E3        29.93S
*BAY CITY      PTCLDY    75  74  98 N3        29.92S
PALACIOS       PTCLDY    74  73  97 NE5       29.91S
$$

TXZ229>234-239>247-280800-
TEXAS COASTAL BEND AND RIO GRANDE PLAINS

CITY           SKY/WX    TMP DP  RH WIND       PRES   REMARKS
VICTORIA       CLEAR     74  72  93 NE6       29.92S
*BEEVILLE      CLEAR    N/A N/A N/A N5        29.92F
ROCKPORT       PTCLDY    80  73  79 E8        29.89S
*PORT ARANSAS  PTCLDY    81  73  77 E8        29.89F
*PORT LAVACA   MOCLDY    77  76  95 CALM      29.91S
*INGLESIDE     CLEAR     80  74  84 MISG      29.89F
CORPUS CHRISTI MOCLDY    80  76  87 W5        29.89F
CORPUS NAS     PTCLDY    81  77  88 E7        29.88F
*ROBSTOWN      MOCLDY    76  32  20 N3        29.90F
ALICE          CLEAR     75  73  93 N3        29.90F
KINGSVILLE NAS PTCLDY    75  75 100 VRB6      29.89F
COTULLA        PTCLDY    72  70  93 E6        29.94F
*FAITH RANCH   CLEAR     75  72  88 E5        29.95F
LAREDO         CLEAR     75  70  84 E5        29.93F
$$

TXZ248>255-280800-
DEEP SOUTH TEXAS

CITY           SKY/WX    TMP DP  RH WIND       PRES   REMARKS
BROWNSVILLE    PTCLDY    77  76  96 CALM      29.88F
PORT ISABEL    PTCLDY    78  75  90 W3        29.87F
*SOUTH PADRE   NOT AVBL
HARLINGEN      PTCLDY    76  76 100 CALM      29.87F
*HEBBRONVILLE  CLOUDY    72  70  91 CALM      29.94F
MCALLEN        CLOUDY    81  74  79 NE5       29.88F
*WESLACO       PTCLDY    76  74  93 CALM      29.87F
FALFURRIAS     CLEAR     75  73  93 N3        29.90F
EDINBURG       MOCLDY    77  73  87 CALM      29.90F
*ZAPATA        CLOUDY    78  70  77 E7        29.91F
$$

TXZ213>215-236>238-242>244-246-247-251-254-255-280800-
CMAN STATIONS

STATION/POSITION TIME  TEMP    WIND        PRES    WAVE
                       AIR SEA DIR/SP/G            HT/PER
                 (UTC) (F)     (DEG/KT/KT) (MB)    (FT/S)
SABINE PASS      0630   81 85  110/ 12/ 15 1015.8
SEA RIM ST PARK  0600   80     110/ 11/ 14 1014.9
NORTH JETTY/GLS  0624      83  110/ 16/ 17 1013.1
EAGLE POINT      0624   81 83  130/ 12/ 15 1013.9
MORGANS POINT    0630   78 83   70/ 10/ 12 1013.9
MISSION/ARANSAS  0600          100/ 11       N/A
PORT O`CONNOR    0624   81     110/ 13/ 17 1011.9
PORT ARANSAS     0600   81 84  100/ 15/ 16 1012.4
MALAQUITE BEACH  0624   82 85   90/  9/ 12 1011.6
PORT ISABEL      0624   80 86              1012.1
$$




USA.gov is the U.S. government's official web portal to all federal, state and local government web resources and services.